Regional Weather Roundup
Issued by NWS

Home | Current Version | Previous Version | Text Only | Print | Product List | Glossary On
Versions: 1 2 3 4 5 6 7 8 9 10 11 12 13 14 15 16 17 18 19 20 21 22 23 24 25 26 27 28 29 30 31 32 33 34 35 36 37 38 39 40 41 42 43 44 45 46 47 48 49 50
000
ASUS45 KCYS 271210
RWRWY

WYOMING REGIONAL WEATHER ROUNDUP
NATIONAL WEATHER SERVICE CHEYENNE WY
600 AM MDT SAT AUG 27 2016

NOTE:  "FAIR" INDICATES FEW OR NO CLOUDS BELOW 12,000 FEET
WITH NO SIGNIFICANT WEATHER AND/OR OBSTRUCTIONS TO VISIBILITY.

WYZ001-271300-
YELLOWSTONE NATIONAL PARK

CITY           SKY/WX    TMP DP  RH WIND       PRES   REMARKS
LK YELLOWSTONE   N/A     32  28  85 NW3       30.19R
6HR MIN TEMP:  32; 6HR MAX TEMP:  42;

W YELLOWSTONE  NOT AVBL

$$
WYZ002>013-054>058-071-098>099-271300-
NORTHERN WYOMING

CITY           SKY/WX    TMP DP  RH WIND       PRES   REMARKS
JACKSON        FAIR      34  27  75 N7        30.15S WCI  28
CODY           FAIR      48  37  66 S6        30.01S
GREYBULL       FAIR      50  38  63 CALM      29.98S
6HR MIN TEMP:  48; 6HR MAX TEMP:  57;

WORLAND        FAIR      42  38  85 CALM      29.99S
6HR MIN TEMP:  42; 6HR MAX TEMP:  53;

SHERIDAN       FAIR      46  43  89 CALM      29.97S
6HR MIN TEMP:  46; 6HR MAX TEMP:  59; 6HR PCP: TRACE;

BUFFALO        FAIR      51  38  60 S7        30.01S
6HR MIN TEMP:  51; 6HR MAX TEMP:  57;

GILLETTE       FAIR      51  49  92 S12       29.99R
6HR MIN TEMP:  51; 6HR MAX TEMP:  56; 6HR PCP:  0.01;

HULETT         FAIR      50  46  87 SW3       30.01F
NEWCASTLE      FAIR      50  50 100 SE3       30.06R

$$
WYZ014>020-022>026-101>103-271300-
CENTRAL WYOMING

CITY           SKY/WX    TMP DP  RH WIND       PRES   REMARKS
BIG PINEY      FAIR      29  25  85 E3        30.20R
6HR MIN TEMP:  27; 6HR MAX TEMP:  45;

PINEDALE       FAIR      30  30 100 NW6       30.21S WCI  24
DUBOIS         FAIR      36  27  69 NW10      30.16S WCI  28
LANDER         FAIR      45  36  70 CALM      30.07S
6HR MIN TEMP:  45; 6HR MAX TEMP:  57;

RIVERTON       FAIR      48  39  71 W7        30.07S
6HR MIN TEMP:  46; 6HR MAX TEMP:  53;

CASPER         FAIR      53  43  68 SW9       30.07R
6HR MIN TEMP:  44; 6HR MAX TEMP:  55;

DOUGLAS        FAIR      43  41  93 CALM      30.08R
6HR MIN TEMP:  42; 6HR MAX TEMP:  50;


$$
WYZ021-027>030-104>119-271300-
SOUTHERN WYOMING

CITY           SKY/WX    TMP DP  RH WIND       PRES   REMARKS
EVANSTON       FAIR      46  25  43 S7        30.21R
6HR MIN TEMP:  46; 6HR MAX TEMP:  58;

FORT BRIDGER   FAIR      55  32  41 SW10      30.22S
ROCK SPRINGS   FAIR      49  34  56 SW9       30.17S
6HR MIN TEMP:  48; 6HR MAX TEMP:  55;

DIXON          FAIR      41  35  79 E7        30.24R
RAWLINS        FAIR      52  37  56 W14       30.17R
6HR MIN TEMP:  52; 6HR MAX TEMP:  57;

SARATOGA       FAIR      46  34  61 SE9       30.22R
LARAMIE        FAIR      44  34  67 SE7       30.21R
6HR MIN TEMP:  43; 6HR MAX TEMP:  53;

CHEYENNE       FAIR      48  42  80 W9        30.15R
6HR MIN TEMP:  47; 6HR MAX TEMP:  53;

TORRINGTON     FOG       51  51 100 SE9       30.05R VSB 1/4
6HR MIN TEMP:  51; 6HR MAX TEMP:  58;

PINE BLUFFS    FAIR      45  45 100 S6        30.11R

$$



USA.gov is the U.S. government's official web portal to all federal, state and local government web resources and services.